Regional Weather Roundup
Issued by NWS

Home | Current Version | Previous Version | Graphics & Text | Print | Product List | Glossary On
Versions: 1 2 3 4 5 6 7 8 9 10 11 12 13 14 15 16 17 18 19 20 21 22 23 24 25 26 27 28 29 30 31 32 33 34 35 36 37 38 39 40 41 42 43 44 45 46 47 48 49 50
000
ASUS43 KFSD 221710
RWRSD

WEATHER ROUNDUP FOR SOUTH DAKOTA
NATIONAL WEATHER SERVICE SIOUX FALLS SD
1200 PM CDT FRI AUG 22 2014

NOTE: "FAIR" INDICATES FEW OR NO CLOUDS BELOW 12,000 FEET WITH NO
SIGNIFICANT WEATHER AND/OR OBSTRUCTIONS TO VISIBILITY.


SDZ001>005-009-010-012>017-221800-
NORTHWEST AND NORTH CENTRAL SOUTH DAKOTA

CITY           SKY/WX    TMP DP  RH WIND       PRES   REMARKS
BUFFALO          N/A     65  58  78 CALM      30.02F
FAITH            N/A     65  61  87 NE12      30.06S
MOBRIDGE       CLOUDY    71  67  87 N12       30.02R
$$

SDZ012>016-024>037-041>051-057-063-072>074-221800-
SOUTHWEST AND SOUTH CENTRAL SOUTH DAKOTA

CITY           SKY/WX    TMP DP  RH WIND       PRES   REMARKS
RAPID CTY ARPT CLOUDY    68  61  78 CALM      30.08S
PIERRE         CLOUDY    75  67  76 E14       29.99R
CUSTER         MOSUNNY   66  55  67 S5        30.16F
ELLSWORTH AFB  CLOUDY    67  62  83 N2        30.07F
PHILIP         CLOUDY    72  64  76 E7        30.02R
PINE RIDGE     CLOUDY    67  61  81 W3        30.09F
WINNER         FAIR      80  69  69 SE9       30.00S
$$

SDZ004>011-016>023-039-040-221800-
NORTHEAST SOUTH DAKOTA

CITY           SKY/WX    TMP DP  RH WIND       PRES   REMARKS
ABERDEEN       PTSUNNY   72  67  84 NE7       30.00F
WATERTOWN      MOSUNNY   81  67  62 E6        29.99S
SISSETON         N/A     74  70  87 CALM      29.99R
$$

SDZ017-020-022-023-036>040-048>070-221800-
SOUTHEAST SOUTH DAKOTA

CITY           SKY/WX    TMP DP  RH WIND       PRES   REMARKS
SIOUX FALLS    PTSUNNY   83  70  64 E8        29.98R
HURON          MOSUNNY   83  66  56 NE9       29.97F
CHAMBERLAIN    CLOUDY    78  66  67 E7        29.99F
MITCHELL       MOSUNNY   82  68  62 N5        29.98S
YANKTON        MOSUNNY   81  72  74 NE7       29.97R
$$

ABBREVIATIONS USED IN REMARKS
   TC - TEMPERATURE IN CELSIUS
  WCI - WIND CHILL INDEX
   HX - HEAT INDEX
  VSB - VISIBILITY




USA.gov is the U.S. government's official web portal to all federal, state and local government web resources and services.